Location: Shepherdstown, WV
(39.4326°N, 77.8042°W)
Time: 05:44:23
(UTC-04:00)

Vanguard 3 - Pass Details

Date: 02 August 2021
Orbit: 510 x 3260 km, 33.3° (Epoch: 21 September)

Event Time Altitude Azimuth Distance (km) Brightness Sun altitude
Rises 03:03:50 0° 276° (W) 7,173 11.8 -27.7°
Enters shadow 03:11:40 - 258° (WSW) 6,058 11.2 -27.0°
Reaches altitude 10° 03:14:10 10° 251° (WSW) 5,762 - -26.7°
Maximum altitude 03:18:44 12° 235° (SW) 5,347 - -26.3°
Drops below altitude 10° 03:22:55 10° 219° (SW) 5,163 - -25.8°
Sets 03:30:36 0° 190° (S) 5,450 - -25.0°
